map of KOE home
KOE - Airport
Location
City:  Kupang, Nusa Tenggara Timur, Indonesia
Name:Eltari Airport
Old (Alt.):El Tari Airport
ICAO:WATT
IATA:KOE

Details
Type:Airport (Aerodrome, Airfield)
Use:Public/Civil, Military, International (customs port of entry)
Latitude:1010'18"S (-10.171582)
Longitude:12340'16"E (123.671136)
Datum:WGS 1984
Elevation:335 ft (102 m)
Variation:1.52E (WMM2015 magnetic declination)
-0.10 annual change
Runways:2
Longest:8202 × 148 ft (2500 × 45 m), paved

Time
Time Zone:UTC+8
Local Time:

Weather
METAR:WATT 180800Z 22008KT 9999 SCT018 32/24 Q1007 NOSIG
TAF:WATT 171100Z 1712/1812 26006KT 8000 SCT018
BECMG 1800/1802 24016KT

Related Locations
Nearby:
Farthest:USI: 12173 mi / 19590 km
Mabaruma [Mabaruma Airport, BA, GY

Find:

   beyond  
but within

Other Information
Maps:
NOTAMs:
Links:
Sources:

  
flag of Indonesia
flag of Nusa Tenggara Timur
  

Sectional Chart

Flight Planning
at skyvector.com

Satellite Image

Google Maps Satellite view

 

Copyright © 2004-2017 Karl L. Swartz. All rights reserved.
The Great Circle Mapper name and logo are trademarks of the Great Circle Mapper.
All other trademarks mentioned herein belong to their respective owners.
Please see credits for attibutions and further copyright information.

  Follow gcmap on Facebook Follow gcmap on Twitter Follow gcmap on Google+ GCmap on LinkedIn

hCard Microformat

Geo Microformat